Location: Gwatt
(46.7204°N, 7.6223°E)
Time: 18:43:18
(UTC+00:00)

Courier 1B Rocket - Pass Details

Date: 25 January 2021
Orbit: 920 x 1202 km, 28.3° (Epoch: 05 March)

Event Time Altitude Azimuth Distance (km) Brightness Sun altitude
Rises 06:35:11 0° 225° (SW) 3,706 7.8 -4.9°
Reaches altitude 10° 06:39:05 10° 203° (SSW) 2,816 7.4 -4.3°
Maximum altitude 06:42:45 15° 170° (S) 2,513 7.7 -3.7°
Drops below altitude 10° 06:46:32 10° 138° (SE) 2,932 8.9 -3.2°
Sets 06:50:44 0° 117° (ESE) 3,952 11.9 -2.5°
